Location: Brasstown Bald
(34.8693°N, 83.8103°W)
Time: 10:54:18
(UTC-05:00)

Amateur Radio Satellites - All Passes

Search period start: 20 February 2017 10:24
Search period end: 21 February 2017 10:24
Location: Brasstown Bald, 34.8693°N, 83.8103°W

Satellite Date Start Highest point End Downlink Frequencies (MHz)
Time Altitude Azimuth
EO-79 20 Feb 10:27:22 10:29:10 13° 66° (ENE) 10:31:00 145.935-145.965
AO-73 20 Feb 10:33:16 10:36:24 19° 292° (WNW) 10:39:31 145.935
POLYITAN 1 20 Feb 10:41:42 10:44:41 19° 69° (ENE) 10:47:41 437.675
ISS 20 Feb 10:42:45 10:45:43 30° 324° (NW) 10:48:42 437.550
QB50P2 20 Feb 10:44:07 10:47:21 22° 70° (ENE) 10:50:36 145.880/145.840
NANOSAT C BR1 20 Feb 10:46:44 10:49:46 20° 69° (ENE) 10:52:49 145.865
Oscar 11 20 Feb 10:48:11 10:50:23 14° 293° (WNW) 10:52:35 .
AIST 2D 20 Feb 10:51:40 10:54:56 36° 74° (ENE) 10:58:14 435.315
YUBILEINY 20 Feb 10:54:16 11:02:43 53° 90° (E) 11:11:09 435.215
DELFI C3 20 Feb 11:05:04 11:08:09 23° 289° (WNW) 11:11:15 145.870
O/OREOS (USA 219) 20 Feb 11:20:07 11:23:34 21° 259° (W) 11:27:00 437.305
Tancredo 1 20 Feb 11:23:07 11:25:02 15° 331° (NNW) 11:26:57 437.200
BUGSAT 1 20 Feb 11:42:35 11:45:53 25° 71° (ENE) 11:49:14 437.445
ESTCUBE 1 20 Feb 11:51:10 11:55:36 59° 101° (E) 12:00:00 437.505/2401.250
FO-29 20 Feb 11:52:15 11:57:48 27° 268° (W) 12:03:52 435.910
DUCHIFAT 1 20 Feb 11:56:22 12:00:30 64° 259° (W) 12:04:40 145.980
SPROUT 20 Feb 11:58:17 12:01:00 16° 94° (E) 12:03:43 437.525
EO-79 20 Feb 12:00:28 12:04:29 46° 261° (W) 12:08:34 145.935-145.965
POLYITAN 1 20 Feb 12:16:33 12:20:13 29° 263° (W) 12:23:57 437.675
QB50P2 20 Feb 12:19:29 12:22:59 25° 264° (W) 12:26:31 145.880/145.840
NANOSAT C BR1 20 Feb 12:21:40 12:25:16 28° 263° (W) 12:28:55 145.865
VELOX 1 20 Feb 12:41:34 12:45:59 69° 103° (ESE) 12:50:22 145.980
Oscar 19 20 Feb 12:45:58 12:50:46 40° 71° (ENE) 12:55:33 437.125/150
Gurwin Techsat 1B 20 Feb 12:46:01 12:50:00 22° 67° (ENE) 12:54:00 435.225
50 SAT 20 Feb 12:51:04 12:54:31 64° 101° (ESE) 12:57:56 437.505
YUBILEINY 20 Feb 12:52:20 12:59:46 30° 287° (WNW) 13:07:15 435.215
DX 1 20 Feb 12:52:27 12:56:29 37° 99° (E) 13:00:30 434.975-435.025
UKube-1 20 Feb 13:16:01 13:20:13 49° 100° (E) 13:24:23 .
BUGSAT 1 20 Feb 13:18:15 13:21:12 20° 265° (W) 13:24:10 437.445
ESTCUBE 1 20 Feb 13:30:28 13:31:51 11° 295° (WNW) 13:33:13 437.505/2401.250
SPROUT 20 Feb 13:33:05 13:36:59 34° 288° (WNW) 13:40:53 437.525
AO-7 20 Feb 14:05:38 14:12:35 31° 61° (ENE) 14:19:32 .
ITUPSAT 1 20 Feb 14:18:22 14:20:55 14° 93° (E) 14:23:28 437.325
AO-85 20 Feb 14:23:25 14:26:27 21° 53° (NE) 14:29:31 145.980
Gurwin Techsat 1B 20 Feb 14:24:41 14:29:38 40° 261° (W) 14:34:38 435.225
Oscar 19 20 Feb 14:26:24 14:30:09 20° 265° (W) 14:33:56 437.125/150
BEESAT 20 Feb 14:28:06 14:31:29 19° 95° (E) 14:34:51 436.000
DX 1 20 Feb 14:29:37 14:32:20 16° 293° (WNW) 14:35:04 434.975-435.025
ITAMSAT 1 20 Feb 14:46:03 14:51:06 57° 73° (ENE) 14:56:13 435.822/435.867
UKube-1 20 Feb 14:53:58 14:55:46 12° 294° (WNW) 14:57:34 .
MOZHAYETS 4 20 Feb 15:37:57 15:42:14 37° 98° (E) 15:46:28
ISS 20 Feb 15:38:42 15:39:01 10° 24° (NNE) 15:39:20 437.550
ITUPSAT 1 20 Feb 15:54:21 15:58:58 49° 287° (WNW) 16:03:33 437.325
AO-7 20 Feb 15:56:42 16:04:51 56° 257° (WSW) 16:13:03 .
AO-85 20 Feb 16:03:31 16:06:46 25° 247° (WSW) 16:10:07 145.980
BEESAT 20 Feb 16:04:56 16:09:19 37° 289° (WNW) 16:13:41 436.000
Tancredo 1 20 Feb 16:15:37 16:17:57 18° 31° (NNE) 16:20:15 437.200
CUBESAT XI-V 20 Feb 16:23:21 16:26:16 16° 94° (E) 16:29:09 437.345
ITAMSAT 1 20 Feb 16:28:09 16:30:53 14° 267° (W) 16:33:37 435.822/435.867
RS-15 20 Feb 16:39:30 16:47:23 21° 99° (E) 16:55:25 29.354- 29.394
PCSat 20 Feb 16:45:13 16:49:46 28° 108° (ESE) 16:54:20 145.827
KKS-1 20 Feb 16:49:10 16:53:34 57° 101° (E) 16:57:57 437.445
M-CUBED/EXP-1 PRIME 20 Feb 16:49:15 16:50:13 11° 100° (E) 16:51:13 437.505
CUTE-I 20 Feb 16:55:35 16:58:46 16° 64° (ENE) 17:01:59 437.470
DOVE 4 20 Feb 17:03:22 17:05:52 16° 69° (ENE) 17:08:23 437.250
ISS 20 Feb 17:12:47 17:16:02 62° 41° (NE) 17:19:15 437.550
BEESAT 3 20 Feb 17:15:36 17:19:38 86° 66° (ENE) 17:23:36 437.485
MOZHAYETS 4 20 Feb 17:15:58 17:19:04 18° 293° (WNW) 17:22:09
STARS 20 Feb 17:38:43 17:43:09 89° 279° (W) 17:47:35 437.465
XW-2F 20 Feb 17:39:22 17:42:53 37° 74° (ENE) 17:46:27 145.980 - 146.000
XW-2D 20 Feb 17:40:31 17:44:06 41° 74° (ENE) 17:47:45 145.860 - 145.880
BEESAT 2 20 Feb 17:41:33 17:45:36 65° 60° (ENE) 17:49:35 435.950
KAITUO 1B 20 Feb 17:43:56 17:47:24 35° 74° (ENE) 17:50:54 145.475/437.950
XW-2B 20 Feb 17:45:21 17:49:00 46° 75° (ENE) 17:52:42 145.730 - 145.750
Tancredo 1 20 Feb 17:51:20 17:54:22 40° 227° (SW) 17:57:23 437.200
XW-2C 20 Feb 17:53:37 17:57:23 61° 76° (ENE) 18:01:12 145.795 - 145.815
CUBESAT XI-V 20 Feb 17:59:29 18:03:44 39° 288° (WNW) 18:07:59 437.345
LilacSat-2 20 Feb 18:04:27 18:08:18 89° 259° (WSW) 18:12:13 437.200
CUTE 1.7 + AOD 2 20 Feb 18:15:54 18:16:59 11° 66° (ENE) 18:18:05 437.475
M-CUBED/EXP-1 PRIME 20 Feb 18:21:14 18:24:44 43° 290° (WNW) 18:28:30 437.505
NUDT-PHONESAT 20 Feb 18:25:20 18:29:01 59° 260° (W) 18:32:45 437.300
KKS-1 20 Feb 18:28:01 18:29:36 12° 295° (WNW) 18:31:10 437.445
PCSat 20 Feb 18:28:08 18:33:00 34° 303° (WNW) 18:37:54 145.827
HO-68 20 Feb 18:31:10 18:37:29 35° 66° (ENE) 18:43:48 435.675
CUTE-I 20 Feb 18:33:06 18:38:18 56° 259° (W) 18:43:33 437.470
DOVE 4 20 Feb 18:39:31 18:43:19 33° 262° (W) 18:47:04 437.250
RS-15 20 Feb 18:46:17 18:58:08 88° 298° (WNW) 19:10:34 29.354- 29.394
CUBEBUG 2 20 Feb 19:11:00 19:14:15 21° 69° (ENE) 19:17:35 437.445
XW-2F 20 Feb 19:15:45 19:17:10 12° 267° (W) 19:18:35 145.980 - 146.000
XW-2D 20 Feb 19:17:37 19:18:29 11° 268° (W) 19:19:20 145.860 - 145.880
KAITUO 1B 20 Feb 19:19:58 19:21:31 12° 267° (W) 19:23:06 145.475/437.950
SEEDS 20 Feb 19:20:23 19:24:22 41° 73° (ENE) 19:28:21 437.485
AAUSAT CUBESAT 2 20 Feb 19:26:42 19:29:58 23° 70° (ENE) 19:33:15 437.432
STRAND 1 20 Feb 19:27:23 19:32:12 38° 99° (E) 19:36:58 437.568
XW-2A 20 Feb 19:31:06 19:34:18 43° 261° (W) 19:37:34 145.665 - 145.685
CUTE 1.7 + AOD 2 20 Feb 19:48:05 19:52:17 56° 260° (W) 19:56:31 437.475
AO-73 20 Feb 19:49:06 19:52:09 19° 68° (ENE) 19:55:14 145.935
UWE-3 20 Feb 19:58:51 20:03:00 45° 73° (ENE) 20:07:17 435.000/436.395/437.385
Oscar 11 20 Feb 20:02:23 20:05:47 23° 70° (ENE) 20:09:12 .
HO-68 20 Feb 20:18:22 20:25:01 40° 261° (W) 20:31:40 435.675
ZACube-1 20 Feb 20:31:59 20:36:18 64° 76° (ENE) 20:40:45 437.345
CUBEBUG 2 20 Feb 20:46:56 20:50:39 28° 264° (W) 20:54:30 437.445
SEEDS 20 Feb 20:58:07 21:00:12 13° 267° (W) 21:02:17 437.485
AAUSAT CUBESAT 2 20 Feb 21:01:56 21:05:18 23° 264° (W) 21:08:40 437.432
RS-15 20 Feb 21:02:44 21:12:33 28° 323° (NW) 21:22:39 29.354- 29.394
STRAND 1 20 Feb 21:07:12 21:11:04 22° 293° (WNW) 21:14:56 437.568
YUBILEINY 20 Feb 21:09:51 21:16:05 21° 69° (ENE) 21:22:13 435.215
AO-73 20 Feb 21:24:08 21:28:04 33° 263° (W) 21:32:08 145.935
PRISM 20 Feb 21:35:37 21:39:19 34° 98° (E) 21:43:02 437.425
UWE-3 20 Feb 21:37:40 21:39:41 13° 269° (W) 21:41:44 435.000/436.395/437.385
Oscar 11 20 Feb 21:38:07 21:41:45 26° 264° (W) 21:45:24 .
UNISAT 6 20 Feb 21:44:38 21:47:55 19° 94° (E) 21:51:09 437.425
DELFI C3 20 Feb 21:46:06 21:50:02 66° 259° (W) 21:54:00 145.870
TIGRISAT 20 Feb 21:46:40 21:49:53 18° 94° (E) 21:53:04 435.000
JUGNU 20 Feb 22:38:10 22:39:33 11° 165° (SSE) 22:40:55 437.505
ESTCUBE 1 20 Feb 22:47:19 22:51:26 35° 72° (ENE) 22:55:33 437.505/2401.250
SO-50 20 Feb 22:51:28 22:55:21 26° 112° (ESE) 22:59:13 436.795
FO-29 20 Feb 23:04:14 23:11:52 60° 100° (E) 23:18:46 435.910
YUBILEINY 20 Feb 23:04:56 23:13:36 72° 267° (W) 23:22:13 435.215
PRISM 20 Feb 23:11:54 23:14:18 15° 292° (WNW) 23:16:41 437.425
UNISAT 6 20 Feb 23:20:22 23:24:41 37° 288° (WNW) 23:28:57 437.425
TIGRISAT 20 Feb 23:22:17 23:26:39 38° 288° (WNW) 23:30:57 435.000
50 SAT 20 Feb 23:23:12 23:25:15 15° 69° (ENE) 23:27:17 437.505
RS-15 20 Feb 23:26:04 23:31:34 13° 358° (N) 23:37:02 29.354- 29.394
VELOX 1 20 Feb 23:35:29 23:39:33 39° 72° (ENE) 23:43:37 145.980
DUCHIFAT 1 20 Feb 23:44:03 23:47:35 25° 96° (E) 23:51:05 145.980
DX 1 20 Feb 23:45:14 23:48:31 21° 69° (ENE) 23:51:48 434.975-435.025
EO-79 20 Feb 23:48:21 23:52:17 34° 98° (E) 23:56:10 145.935-145.965
O/OREOS (USA 219) 20 Feb 23:48:48 23:53:12 66° 107° (ESE) 23:57:39 437.305
AIST 2D 20 Feb 23:52:55 23:56:29 77° 101° (E) 00:00:02 435.315
POLYITAN 1 21 Feb 00:03:58 00:08:12 54° 100° (E) 00:12:23 437.675
QB50P2 21 Feb 00:06:40 00:10:56 64° 101° (ESE) 00:15:11 145.880/145.840
UKube-1 21 Feb 00:07:27 00:11:04 27° 70° (ENE) 00:14:42 .
NANOSAT C BR1 21 Feb 00:08:28 00:12:40 56° 100° (E) 00:16:51 145.865
SPROUT 21 Feb 00:22:23 00:26:36 73° 258° (WSW) 00:30:53 437.525
JUGNU 21 Feb 00:24:02 00:27:47 17° 175° (S) 00:31:34 437.505
ESTCUBE 1 21 Feb 00:25:15 00:28:17 18° 266° (W) 00:31:20 437.505/2401.250
SO-50 21 Feb 00:31:33 00:35:41 30° 306° (NW) 00:39:47 436.795
FO-29 21 Feb 00:50:11 00:56:10 25° 297° (WNW) 01:01:50 435.910
50 SAT 21 Feb 00:55:12 00:58:08 25° 263° (W) 01:01:05 437.505
BUGSAT 1 21 Feb 01:01:41 01:05:55 72° 101° (ESE) 01:10:09 437.445
Oscar 19 21 Feb 01:01:47 01:05:14 18° 94° (E) 01:08:40 437.125/150
Gurwin Techsat 1B 21 Feb 01:08:19 01:08:45 10° 91° (E) 01:09:09 435.225
VELOX 1 21 Feb 01:13:34 01:16:07 15° 266° (W) 01:18:39 145.980
SRMSAT 21 Feb 01:15:23 01:17:17 11° 165° (SSE) 01:19:11 437.500
DUCHIFAT 1 21 Feb 01:19:46 01:23:06 23° 290° (WNW) 01:26:25 145.980
DX 1 21 Feb 01:20:50 01:24:30 27° 263° (W) 01:28:12 434.975-435.025
ITUPSAT 1 21 Feb 01:22:51 01:24:48 12° 64° (ENE) 01:26:46 437.325
EO-79 21 Feb 01:24:57 01:27:44 17° 292° (WNW) 01:30:30 145.935-145.965
BEESAT 21 Feb 01:31:54 01:34:47 16° 66° (ENE) 01:37:40 436.000
O/OREOS (USA 219) 21 Feb 01:32:05 01:33:03 11° 304° (WNW) 01:34:03 437.305
PCSat 21 Feb 01:37:25 01:39:57 13° 47° (NE) 01:42:29 145.827
RS-15 21 Feb 01:41:11 01:50:51 25° 35° (NE) 02:00:14 29.354- 29.394
POLYITAN 1 21 Feb 01:42:07 01:43:27 11° 295° (WNW) 01:44:47 437.675
UKube-1 21 Feb 01:43:46 01:47:02 21° 264° (W) 01:50:19 .
NANOSAT C BR1 21 Feb 01:46:47 01:47:51 11° 295° (WNW) 01:48:55 145.865
JUGNU 21 Feb 02:12:17 02:16:05 18° 185° (S) 02:19:55 437.505
MOZHAYETS 4 21 Feb 02:36:44 02:40:30 25° 70° (ENE) 02:44:16
Oscar 19 21 Feb 02:39:52 02:44:42 44° 288° (WNW) 02:49:32 437.125/150
Gurwin Techsat 1B 21 Feb 02:43:50 02:49:10 78° 285° (WNW) 02:54:29 435.225
ITUPSAT 1 21 Feb 02:57:18 03:02:03 62° 259° (WSW) 03:06:49 437.325
SRMSAT 21 Feb 03:01:49 03:05:43 18° 175° (S) 03:09:36 437.500
ITAMSAT 1 21 Feb 03:02:48 03:07:09 26° 96° (E) 03:11:28 435.822/435.867
BEESAT 21 Feb 03:07:33 03:12:08 46° 260° (W) 03:16:45 436.000
PCSat 21 Feb 03:18:35 03:24:02 86° 244° (WSW) 03:29:27 145.827
CUBESAT XI-V 21 Feb 03:24:46 03:26:32 12° 65° (ENE) 03:28:17 437.345
KKS-1 21 Feb 03:43:59 03:47:57 34° 72° (ENE) 03:51:57 437.445
RS-15 21 Feb 03:53:14 04:05:36 81° 60° (ENE) 04:17:21 29.354- 29.394
AO-7 21 Feb 04:01:53 04:10:08 64° 104° (ESE) 04:18:18 .
JUGNU 21 Feb 04:02:35 04:04:22 11° 195° (SSW) 04:06:07 437.505
MOZHAYETS 4 21 Feb 04:13:36 04:17:31 27° 264° (W) 04:21:27
STARS 21 Feb 04:31:46 04:35:59 51° 74° (ENE) 04:40:14 437.465
AO-85 21 Feb 04:35:01 04:38:07 18° 111° (ESE) 04:41:05 145.980
ITAMSAT 1 21 Feb 04:41:57 04:46:33 32° 291° (WNW) 04:51:08 435.822/435.867
SRMSAT 21 Feb 04:50:20 04:54:11 18° 185° (S) 04:58:02 437.500
CUBESAT XI-V 21 Feb 04:58:44 05:03:20 60° 260° (W) 05:07:58 437.345
M-CUBED/EXP-1 PRIME 21 Feb 05:04:39 05:08:01 58° 255° (WSW) 05:11:16 437.505
KKS-1 21 Feb 05:21:35 05:24:34 18° 265° (W) 05:27:33 437.445
LilacSat-2 21 Feb 05:42:53 05:44:32 12° 93° (E) 05:46:09 437.200
AO-7 21 Feb 05:55:43 06:02:15 27° 301° (WNW) 06:08:45 .
NUDT-PHONESAT 21 Feb 06:00:21 06:02:43 16° 94° (E) 06:05:03 437.300
RS-15 21 Feb 06:07:49 06:16:35 24° 260° (W) 06:25:08 29.354- 29.394
STARS 21 Feb 06:11:17 06:12:35 11° 268° (W) 06:13:54 437.465
AO-85 21 Feb 06:13:55 06:18:16 40° 303° (WNW) 06:22:21 145.980
STRAND 1 21 Feb 06:39:56 06:44:39 39° 71° (ENE) 06:49:25 437.568
DOVE 4 21 Feb 06:39:58 06:44:38 76° 103° (ESE) 06:49:33 437.250
SRMSAT 21 Feb 06:41:02 06:42:36 11° 195° (SSW) 06:44:11 437.500
XW-2F 21 Feb 06:48:33 06:52:24 89° 278° (W) 06:56:11 145.980 - 146.000
XW-2D 21 Feb 06:50:10 06:54:01 80° 283° (WNW) 06:57:48 145.860 - 145.880
KAITUO 1B 21 Feb 06:52:03 06:55:51 84° 102° (ESE) 06:59:35 145.475/437.950
CUTE-I 21 Feb 06:53:20 06:58:44 78° 103° (ESE) 07:04:06 437.470
XW-2B 21 Feb 06:55:07 06:58:56 71° 283° (WNW) 07:02:42 145.730 - 145.750
XW-2A 21 Feb 06:57:36 06:59:18 13° 94° (E) 07:01:00 145.665 - 145.685
BEESAT 3 21 Feb 07:02:38 07:06:02 30° 113° (ESE) 07:09:30 437.485
XW-2C 21 Feb 07:03:36 07:07:20 52° 285° (WNW) 07:11:03 145.795 - 145.815
LilacSat-2 21 Feb 07:15:23 07:18:55 35° 287° (WNW) 07:22:25 437.200
SO-50 21 Feb 07:27:36 07:28:47 11° 44° (NE) 07:29:57 436.795
BEESAT 2 21 Feb 07:30:21 07:33:33 24° 111° (ESE) 07:36:47 435.950
NUDT-PHONESAT 21 Feb 07:33:27 07:36:38 26° 288° (WNW) 07:39:48 437.300
CUTE 1.7 + AOD 2 21 Feb 07:36:31 07:40:15 30° 97° (E) 07:43:57 437.475
HO-68 21 Feb 07:49:08 07:56:02 49° 101° (E) 08:02:52 435.675
UWE-3 21 Feb 07:53:26 07:55:37 13° 92° (E) 07:57:47 435.000/436.395/437.385
STRAND 1 21 Feb 08:20:09 08:23:55 21° 265° (W) 08:27:43 437.568
PRISM 21 Feb 08:22:37 08:25:12 16° 68° (ENE) 08:27:46 437.425
ZACube-1 21 Feb 08:24:47 08:27:45 17° 93° (E) 08:30:41 437.345
XW-2A 21 Feb 08:29:09 08:32:05 26° 287° (WNW) 08:35:00 145.665 - 145.685
CUTE-I 21 Feb 08:36:04 08:38:03 12° 298° (WNW) 08:40:03 437.470
CUBEBUG 2 21 Feb 08:39:59 08:44:46 76° 101° (ESE) 08:49:29 437.445
BEESAT 3 21 Feb 08:40:52 08:43:40 19° 309° (NW) 08:46:31 437.485
UNISAT 6 21 Feb 08:42:21 08:43:26 11° 64° (ENE) 08:44:32 437.425
SEEDS 21 Feb 08:42:44 08:46:51 62° 285° (WNW) 08:50:57 437.485
TIGRISAT 21 Feb 08:44:30 08:45:16 10° 64° (ENE) 08:46:02 435.000
AAUSAT CUBESAT 2 21 Feb 08:46:21 08:50:26 66° 101° (E) 08:54:29 437.432
Tancredo 1 21 Feb 08:50:57 08:53:43 26° 131° (SE) 08:56:29 437.200
SO-50 21 Feb 09:05:19 09:09:49 84° 242° (WSW) 09:14:17 436.795
BEESAT 2 21 Feb 09:08:03 09:11:13 23° 307° (NW) 09:14:26 435.950
CUTE 1.7 + AOD 2 21 Feb 09:12:56 09:15:50 18° 291° (WNW) 09:18:43 437.475
FO-29 21 Feb 09:13:34 09:18:21 20° 60° (ENE) 09:23:26 435.910
AO-73 21 Feb 09:14:52 09:19:23 59° 100° (E) 09:23:47 145.935
DELFI C3 21 Feb 09:27:23 09:30:10 18° 95° (E) 09:32:55 145.870
Oscar 11 21 Feb 09:27:43 09:32:03 73° 101° (E) 09:36:20 .
UWE-3 21 Feb 09:27:46 09:32:18 51° 286° (WNW) 09:36:46 435.000/436.395/437.385
HO-68 21 Feb 09:37:30 09:43:22 28° 296° (WNW) 09:49:13 435.675
ISS 21 Feb 09:49:54 09:53:10 62° 319° (NW) 09:56:26 437.550
PRISM 21 Feb 09:56:31 10:00:12 32° 262° (W) 10:03:53 437.425
ZACube-1 21 Feb 09:59:54 10:04:07 37° 287° (WNW) 10:08:16 437.345
O/OREOS (USA 219) 21 Feb 10:01:57 10:06:32 72° 70° (ENE) 10:11:06 437.305
YUBILEINY 21 Feb 10:06:40 10:13:40 27° 84° (E) 10:20:38 435.215
UNISAT 6 21 Feb 10:15:09 10:19:31 62° 259° (W) 10:24:01 437.425
